Weather History for Storm Lake, IA

Change the Weather History Date:

Tuesday, January 15, 2013

  Actual Average Record
Temperature  
Mean Temperature 26 °F -  
Max Temperature 32 °F 26 °F 59 °F (2006)
Min Temperature 21 °F 10 °F -22 °F (2009)
Degree Days  
Heating Degree Days 38    
Moisture  
Dew Point 16 °F    
Average Humidity 69    
Maximum Humidity 86    
Minimum Humidity 51    
Precipitation  
Precipitation 0.00 in - - ()
Sea Level Pressure  
Sea Level Pressure 30.04 in    
Wind  
Wind Speed 17 mph (SSW)    
Max Wind Speed 23 mph    
Max Gust Speed 28 mph    
Visibility 10 miles    
Events      
Averages and records for this station are not official NWS values.
T = Trace of Precipitation, MM = Missing Value Source: NWS Daily Summary

Daily Weather History Graph

Daily Weather History Graph

Search for Another Location

Airport:

Trip Planner

Search our weather history database for the weather conditions in past years. The results will help you decide how hot, cold, wet, or windy it might be!

Date:

Astronomy

Jan. 15, 2013 Rise Set
Actual Time 7:48 AM CST 5:13 PM CST
Civil Twilight 7:16 AM CST 5:44 PM CST
Nautical Twilight 6:42 AM CST 6:19 PM CST
Astronomical Twilight 6:08 AM CST 6:53 PM CST
Moon 9:47 AM CST (1/15) 10:11 PM CST (1/15)
Length of Visible Light 10h 27m
Length of Day
9h 25m
Waxing Crescent, 19% of the Moon is Illuminated
Jan 15
Waxing Crescent
Jan 18
First Quarter
Jan 26
Full
Feb 3
Last Quarter
Feb 10
New

Hourly Weather History & Observations

Time (CST) Temp. Windchill Dew Point Humidity Pressure Visibility Wind Dir Wind Speed Gust Speed Precip Events Conditions
12:55 PM 28.4 °F 16.2 °F 15.8 °F 59% 30.14 in 10.0 mi SSW 17.3 mph - N/A   Unknown
1:15 PM 30.2 °F 18.5 °F 15.8 °F 55% 30.13 in 10.0 mi SW 17.3 mph - N/A   Clear
1:35 PM 30.2 °F 17.4 °F 15.8 °F 55% 30.12 in 10.0 mi SW 20.7 mph - N/A   Clear
1:55 PM 30.2 °F 17.4 °F 15.8 °F 55% 30.10 in 10.0 mi SSW 20.7 mph 26.5 mph N/A   Clear
2:15 PM 30.2 °F 17.1 °F 14.0 °F 51% 30.10 in 10.0 mi SW 21.9 mph 27.6 mph N/A   Clear
2:35 PM 32.0 °F 19.2 °F 15.8 °F 51% 30.10 in 10.0 mi SW 23.0 mph - N/A   Clear
2:55 PM 32.0 °F 19.5 °F 15.8 °F 51% 30.09 in 10.0 mi SSW 21.9 mph - N/A   Clear
3:15 PM 32.0 °F 19.8 °F 15.8 °F 51% 30.09 in 10.0 mi SSW 20.7 mph - N/A   Clear
3:35 PM 30.2 °F 17.1 °F 15.8 °F 55% 30.08 in 10.0 mi SSW 21.9 mph - N/A   Clear
3:55 PM 30.2 °F 17.4 °F 15.8 °F 55% 30.08 in 10.0 mi SSW 20.7 mph - N/A   Clear
4:15 PM 30.2 °F 18.1 °F 15.8 °F 55% 30.07 in 10.0 mi SSW 18.4 mph - N/A   Clear
4:35 PM 30.2 °F 18.9 °F 17.6 °F 60% 30.07 in 10.0 mi SSW 16.1 mph - N/A   Clear
4:55 PM 28.4 °F 17.0 °F 17.6 °F 64% 30.07 in 10.0 mi SSW 15.0 mph - N/A   Clear
5:35 PM 24.8 °F 13.4 °F 15.8 °F 69% 30.07 in 10.0 mi SSW 12.7 mph - N/A   Clear
5:55 PM 24.8 °F 13.4 °F 15.8 °F 69% 30.07 in 10.0 mi SSW 12.7 mph - N/A   Clear
6:15 PM 23.0 °F 12.4 °F 15.8 °F 74% 30.06 in 10.0 mi SSW 10.4 mph - N/A   Clear
6:35 PM 24.8 °F 12.9 °F 15.8 °F 69% 30.05 in 10.0 mi SSW 13.8 mph - N/A   Clear
6:55 PM 23.0 °F 10.1 °F 15.8 °F 74% 30.04 in 10.0 mi SSW 15.0 mph - N/A   Clear
7:15 PM 23.0 °F 10.6 °F 15.8 °F 74% 30.04 in 10.0 mi SSW 13.8 mph - N/A   Clear
7:35 PM 23.0 °F 10.6 °F 15.8 °F 74% 30.04 in 10.0 mi SSW 13.8 mph - N/A   Clear
7:55 PM 23.0 °F 10.6 °F 15.8 °F 74% 30.03 in 10.0 mi SSW 13.8 mph - N/A   Clear
8:15 PM 23.0 °F 10.6 °F 15.8 °F 74% 30.02 in 10.0 mi SSW 13.8 mph - N/A   Clear
8:35 PM 23.0 °F 10.6 °F 15.8 °F 74% 30.02 in 10.0 mi SSW 13.8 mph - N/A   Clear
8:55 PM 21.2 °F 8.9 °F 15.8 °F 80% 30.01 in 10.0 mi SSW 12.7 mph - N/A   Clear
9:15 PM 21.2 °F 8.3 °F 15.8 °F 80% 29.99 in 10.0 mi SSW 13.8 mph - N/A   Clear
9:35 PM 21.2 °F 8.3 °F 17.6 °F 86% 29.98 in 10.0 mi SSW 13.8 mph - N/A   Clear
9:55 PM 21.2 °F 8.3 °F 17.6 °F 86% 29.96 in 10.0 mi SSW 13.8 mph - N/A   Clear
10:15 PM 21.2 °F 7.3 °F 17.6 °F 86% 29.95 in 10.0 mi SSW 16.1 mph - N/A   Clear
10:35 PM 21.2 °F 7.3 °F 17.6 °F 86% 29.95 in 10.0 mi SW 16.1 mph - N/A   Clear
10:55 PM 21.2 °F 6.8 °F 17.6 °F 86% 29.94 in 10.0 mi SW 17.3 mph 23.0 mph N/A   Clear
11:15 PM 21.2 °F 6.4 °F 17.6 °F 86% 29.93 in 10.0 mi SW 18.4 mph - N/A   Clear
11:35 PM 21.2 °F 6.8 °F 17.6 °F 86% 29.92 in 10.0 mi SW 17.3 mph - N/A   Clear